Hourly Data Report for November 17, 2017

All times are specified in Local Standard Time (LST). Add 1 hour to adjust for Daylight Saving Time where and when it is observed.

GREENWOOD A
NOVA SCOTIA

44°59'00.000" N
64°55'00.000" W
28.00 m
8202000
71397
YZX

Download Data

Hourly Data (November 2017)
Hourly Data Report for November 17, 2017
Temp Definition
°C
Dew Point Temp Definition
°C
Rel Hum Definition
%
Wind Dir Definition
10's deg

Wind Spd Definition
km/h
Visibility Definition
km
Stn Press Definition
kPa
Hmdx Definition


Wind Chill Definition


Weather Definition


TIME
00:00 10.4 8.9 90 11 20 12.9 99.74     Rain
01:00 10.4 9.1 92 12 22 9.7 99.47     Rain,Fog
02:00 11.4 9.8 90 15 30 19.3 99.25     Rain
03:00 11.4 8.7 83 14 20 12.9 99.12     Rain
04:00 11.3 8.9 85 21 19 24.1 99.00     Mainly Clear
05:00 9.9 8.0 88 19 22 12.9 98.94     Mostly Cloudy
06:00 7.5 6.3 92 24 30 9.7 98.99     Rain Showers,Fog
07:00 6.5 4.6 88 22 30 9.7 99.01     Rain Showers,Fog
08:00 5.7 4.2 90 23 28 9.7 99.02     Rain Showers,Fog
09:00 5.1 4.3 95 23 33 2.4 99.01     Rain Showers,Fog
10:00 5.0 3.7 91 25 33 19.3 99.03     Rain Showers
11:00 5.0 3.5 90 25 30 9.7 99.01     Rain Showers,Fog
12:00 5.8 4.6 92 27 35 9.7 99.02     Rain Showers,Fog
13:00 5.0 3.3 89 27 37 24.1 99.10     Rain Showers
14:00 5.4 2.8 83 28 50 24.1 99.15     Cloudy
15:00 5.6 2.5 80 28 32 24.1 99.24     Rain Showers
16:00 5.2 2.1 80 28 32 24.1 99.38     Mostly Cloudy
17:00 4.4 1.0 79 28 41 24.1 99.50     Mostly Cloudy
18:00 3.8 0.0 76 28 37 24.1 99.61     Mostly Cloudy
19:00 3.2 -0.4 77 29 43 24.1 99.71     Cloudy
20:00 2.8 -0.3 80 28 30 24.1 99.77     Cloudy
21:00 2.4 -1.1 78 29 32 24.1 99.84     Cloudy
22:00 2.2 -1.3 78 30 32 24.1 99.91     Cloudy
23:00 1.8 -1.7 78 28 37 24.1 99.97     Cloudy

Notes on Data Quality.

Legend

  • E = Estimated
  • M = Missing
  • NA = Not Available
  • ‡ = Partner data that is not subject to review by the National Climate Archives
Date modified: